Location: Newark
(25.0000°N, 73.5000°E)
Time: 05:11:04
(UTC+00:00)

Altair - Pass Details

Date: 07 March 2021
Orbit: 1501 x 1683 km, 47.2° (Epoch: 12 April)

Event Time Altitude Azimuth Distance (km) Brightness Sun altitude
Rises 17:29:56 0° 317° (NW) 4,693 10.5 -57.5°
Reaches altitude 10° 17:33:36 10° 328° (NNW) 3,735 9.8 -58.1°
Enters shadow 17:35:14 15° 336° (NNW) 3,361 9.5 -58.4°
Maximum altitude 17:41:30 29° 25° (NNE) 2,619 - -59.6°
Drops below altitude 10° 17:49:37 10° 82° (E) 3,853 - -61.0°
Sets 17:53:26 0° 93° (E) 4,865 - -61.7°
